Location: Bas-Clignon
(44.2000°N, 6.6333°E)
Time: 01:59:47
(UTC+00:00)

Cosmos 2278 Rocket - Pass Details

Date: 03 February 2023
Orbit: 841 x 845 km, 71.0° (Epoch: 27 March)

Event Time Altitude Azimuth Distance (km) Brightness Sun altitude
Rises 19:56:15 0° 335° (NNW) 3,414 5.8 -34.3°
Reaches altitude 10° 19:58:43 10° 337° (NNW) 2,475 5.0 -34.8°
Enters shadow 20:00:47 23° 340° (NNW) 1,715 4.0 -35.1°
